CW2434 Weather Reports


time (UTC)temp
C
wind
direction
speed
KPH
gust
KPH
rain 1hr
cm
rain 24hr
cm
rain mn
cm
humidity
%
barometer
mb
20260505124557 16 187 3.2 11.3 0.00 0.00 0.00 73 1009.5
20260505123058 15 190 1.6 11.3 0.00 0.00 0.00 73 1009.6
20260505121556 14 0 0.0 9.7 0.00 0.00 0.00 77 1009.7
20260505120110 13 0 0.0 8.0 0.00 0.00 0.00 80 1009.5
20260505114555 13 141 3.2 9.7 0.00 0.00 0.00 79 1009.3
20260505113052 13 173 9.7 30.6 0.00 0.00 0.00 73 1009.8
20260505111549 13 147 6.4 14.5 0.00 0.00 0.00 69 1009.9
20260505110109 13 217 3.2 12.9 0.00 0.00 0.00 70 1009.9
20260505101551 12 149 3.2 12.9 0.00 0.00 0.00 69 1009.7
20260505100049 13 144 3.2 14.5 0.00 0.00 0.00 68 1009.4
20260505094554 13 121 4.8 12.9 0.00 0.00 0.00 67 1009.1
20260505093049 13 136 3.2 12.9 0.00 0.00 0.00 67 1009.0
20260505091556 12 127 4.8 11.3 0.00 0.00 0.00 67 1008.9
20260505090056 12 140 4.8 12.9 0.00 0.00 0.00 68 1009.1
20260505084600 12 159 1.6 12.9 0.00 0.00 0.00 68 1009.2
20260505083105 12 121 1.6 11.3 0.00 0.00 0.00 66 1009.3
20260505081556 12 143 1.6 11.3 0.00 0.00 0.00 66 1009.3
20260505080055 13 119 1.6 12.9 0.00 0.00 0.00 65 1009.2
20260505074549 13 173 3.2 12.9 0.00 0.00 0.00 64 1009.2
20260505073052 13 129 3.2 12.9 0.00 0.00 0.00 62 1009.2
20260505071554 13 155 4.8 12.9 0.00 0.00 0.00 61 1009.4
20260505070053 13 132 3.2 16.1 0.00 0.00 0.00 61 1009.3
20260505064620 13 155 3.2 16.1 0.00 0.00 0.00 60 1009.3
20260505063053 13 140 3.2 12.9 0.00 0.00 0.00 58 1009.3
20260505061551 14 139 3.2 14.5 0.00 0.00 0.00 57 1009.4
20260505060049 14 167 3.2 12.9 0.00 0.00 0.00 56 1009.5
20260505054551 15 161 4.8 19.3 0.00 0.00 0.00 55 1009.6
20260505053052 15 169 3.2 17.7 0.00 0.00 0.00 54 1009.4
20260505051549 15 204 6.4 17.7 0.00 0.00 0.00 54 1009.6
20260505041548 14 194 4.8 14.5 0.00 0.00 0.00 56 1009.8
20260505040059 14 0 3.2 12.9 0.00 0.00 0.00 57 1009.7
20260505034604 14 212 1.6 9.7 0.00 0.00 0.00 57 1009.9
20260505033054 14 178 1.6 11.3 0.00 0.00 0.00 56 1009.8
20260505031547 14 156 3.2 11.3 0.00 0.00 0.00 56 1009.7
20260505030057 14 139 4.8 11.3 0.00 0.00 0.00 57 1009.8
20260505024606 15 107 3.2 14.5 0.00 0.00 0.00 56 1009.8
20260505023052 15 256 1.6 12.9 0.00 0.00 0.00 54 1009.8
20260505021552 15 134 1.6 16.1 0.00 0.00 0.00 55 1009.9
20260505014550 15 136 1.6 11.3 0.00 0.00 0.00 54 1009.8
20260505013053 15 0 3.2 8.0 0.00 0.00 0.00 53 1009.6
20260505011557 15 0 0.0 8.0 0.00 0.00 0.00 52 1009.4
20260505010108 16 101 4.8 12.9 0.00 0.00 0.00 52 1009.3
20260505004601 16 221 3.2 9.7 0.00 0.00 0.00 51 1009.1
20260505003051 16 0 3.2 14.5 0.00 0.00 0.00 48 1008.8
20260505001549 17 148 4.8 16.1 0.00 0.00 0.00 46 1008.5
20260505000100 17 0 0.0 6.4 0.00 0.00 0.00 42 1008.1
20260504234547 18 0 0.0 6.4 0.00 0.00 0.00 41 1007.9
20260504233048 19 229 6.4 16.1 0.00 0.00 0.00 38 1007.7
20260504231618 20 219 4.8 17.7 0.00 0.00 0.00 35 1007.6
20260504230051 20 239 11.3 20.9 0.00 0.00 0.00 35 1007.4
20260504224549 20 221 12.9 25.7 0.00 0.00 0.00 34 1007.3
20260504223051 20 241 9.7 25.7 0.00 0.00 0.00 33 1007.4
20260504221641 21 281 6.4 30.6 0.00 0.00 0.00 32 1007.4
20260504220052 21 196 11.3 30.6 0.00 0.00 0.00 34 1007.6
20260504214550 21 240 14.5 27.4 0.00 0.00 0.00 32 1007.7
20260504213054 21 256 14.5 24.1 0.00 0.00 0.00 32 1007.9
20260504211549 21 239 12.9 25.7 0.00 0.00 0.00 31 1007.9
20260504210050 21 257 6.4 17.7 0.00 0.00 0.00 32 1008.0
20260504204549 21 238 11.3 20.9 0.00 0.00 0.00 31 1008.1
20260504203046 21 193 12.9 32.2 0.00 0.00 0.00 31 1008.0
20260504201550 21 264 11.3 25.7 0.00 0.00 0.00 33 1008.1
20260504200049 21 248 9.7 33.8 0.00 0.00 0.00 32 1008.3
20260504194551 20 235 8.0 25.7 0.00 0.00 0.00 33 1008.4
20260504193055 19 192 9.7 25.7 0.00 0.00 0.00 32 1008.5
20260504191610 20 250 9.7 33.8 0.00 0.00 0.00 34 1008.6
20260504190050 20 208 11.3 25.7 0.00 0.00 0.00 32 1008.7
20260504184601 20 232 16.1 32.2 0.00 0.00 0.00 34 1008.9
20260504183047 20 223 16.1 29.0 0.00 0.00 0.00 32 1009.0
20260504181548 20 212 9.7 27.4 0.00 0.00 0.00 34 1009.0
20260504180051 19 273 12.9 27.4 0.00 0.00 0.00 35 1009.3
20260504174549 19 155 12.9 32.2 0.00 0.00 0.00 36 1009.6
20260504173051 18 254 14.5 29.0 0.00 0.00 0.00 36 1009.6
20260504171546 18 247 16.1 33.8 0.00 0.00 0.00 35 1009.8